Location: Pabrico
(37.5827°N, 122.0063°W)
Time: 06:38:55
(UTC+00:00)

SL-16 R/B - Visible Passes

Search period start: 13 July 2024 00:00
Search period end: 23 July 2024 00:00
Orbit: 839 x 849 km, 71.0° (Epoch: 12 July)

Date Brightness Start Highest point End Pass type
(mag) Time Alt. Az. Time Alt. Az. Time Alt. Az.
13 Jul 4.7 05:10:28 10° WNW 05:13:23 14° W 05:16:18 10° SW visible
14 Jul 4.7 04:56:00 10° WNW 04:59:07 15° W 05:02:13 10° SW visible
15 Jul 4.7 04:41:33 10° WNW 04:44:50 16° W 04:48:06 10° SW visible
16 Jul 4.7 04:27:08 10° WNW 04:30:33 17° W 04:33:59 10° SW visible
17 Jul 4.7 04:12:42 10° WNW 04:16:17 17° W 04:19:51 10° SW visible
18 Jul 4.7 03:58:17 10° WNW 04:02:01 18° W 04:05:43 10° SW visible
